Location: ????????
(37.6846°N, 24.0673°E)
Time: 13:30:12
(UTC+00:00)

Aureole 1 Rocket - Pass Details

Date: 14 July 2020
Orbit: 377 x 1380 km, 73.9° (Epoch: 03 August)

Event Time Altitude Azimuth Distance (km) Brightness Sun altitude
Exits shadow 00:43:20 51° 271° (W) 857 3.5 -22.9°
Maximum altitude 00:43:48 53° 294° (WNW) 851 3.6 -22.8°
Drops below altitude 10° 00:49:16 10° 10° (N) 2,502 7.1 -22.2°
Sets 00:52:11 0° 15° (NNE) 3,627 8.2 -21.9°
